Date,TemperatureHighF,TemperatureAvgF,TemperatureLowF,DewpointHighF,DewpointAvgF,DewpointLowF,HumidityHigh,HumidityAvg,HumidityLow,PressureMaxIn,PressureMinIn,WindSpeedMaxMPH,WindSpeedAvgMPH,GustSpeedMaxMPH,PrecipitationSumIn
2013-1-1,39,26,14,22,15,11,93,64,38,30.10,29.93,15,4,0,0.00
2013-1-2,37,23,10,13,10,5,96,61,27,30.13,29.98,8,3,0,0.00
2013-1-3,38,25,16,16,11,7,77,57,39,30.21,30.08,9,4,0,0.00
2013-1-4,37,22,10,8,5,1,87,50,30,30.19,30.01,7,3,0,0.00
2013-1-5,42,26,12,9,6,3,67,44,25,30.23,30.08,6,2,0,0.00
2013-1-6,44,28,14,12,8,6,73,46,25,30.24,29.95,8,3,0,0.00
2013-1-7,50,37,29,21,15,10,58,41,27,29.95,29.77,7,3,0,0.00
2013-1-8,51,34,19,18,15,10,86,50,19,30.09,29.78,15,6,0,0.00
2013-1-9,43,30,22,16,14,13,72,54,32,30.23,29.99,6,3,0,0.00
2013-1-10,46,34,23,17,15,12,65,45,30,29.99,29.56,7,3,0,0.00
2013-1-11,41,32,19,26,7,-8,65,37,17,29.74,29.43,28,9,0,0.16
2013-1-12,34,21,9,4,-2,-10,68,39,19,29.78,29.65,12,4,0,0.00
2013-1-13,32,21,6,9,1,-3,78,42,27,29.91,29.75,6,3,0,0.00
2013-1-14,30,21,14,23,11,-1,93,67,44,29.91,29.74,13,4,0,0.00
2013-1-15,26,17,7,6,2,0,82,54,34,30.19,29.90,13,5,0,0.00
2013-1-16,40,24,8,16,8,2,80,53,32,30.28,30.14,6,3,0,0.00
2013-1-17,48,30,13,18,14,10,88,54,29,30.38,30.23,9,3,0,0.00
2013-1-18,52,35,19,22,18,13,83,52,28,30.25,30.08,6,2,0,0.00
2013-1-19,55,36,21,22,18,16,82,52,23,30.24,30.11,7,3,0,0.00
2013-1-20,53,36,18,20,16,8,81,49,21,30.20,30.02,5,2,0,0.00
2013-1-21,56,37,18,19,14,10,76,42,20,30.18,30.03,8,3,0,0.00
2013-1-22,58,40,22,24,16,10,92,42,19,30.19,30.06,8,2,0,0.00
2013-1-23,59,40,22,16,13,9,68,36,16,30.26,30.12,7,2,0,0.00
2013-1-24,64,44,24,35,18,9,66,39,17,30.19,30.02,8,2,0,0.00
2013-1-25,59,48,36,42,37,32,85,66,51,30.16,30.02,5,1,0,0.00
2013-1-26,56,48,42,51,42,36,97,80,63,30.02,29.73,13,3,0,0.18
2013-1-27,60,49,37,42,39,35,99,72,40,29.84,29.73,14,4,0,0.00
2013-1-28,56,44,33,40,34,20,99,72,38,29.78,29.54,18,7,0,0.01
2013-1-29,38,33,28,24,15,3,78,49,25,30.07,29.53,28,10,0,0.60
2013-1-30,43,32,20,19,14,9,73,49,27,30.04,29.79,19,6,0,0.00
2013-1-31,54,37,20,25,21,17,94,57,26,30.16,30.03,13,3,0,0.00
2013-2-1,57,40,22,25,21,17,86,52,22,30.13,30.00,10,3,0,0.00
2013-2-2,57,43,28,26,22,19,86,47,25,30.25,30.13,10,3,0,0.00
2013-2-3,55,42,28,32,24,20,86,50,27,30.16,29.83,10,3,0,0.00
2013-2-4,59,46,33,32,26,18,82,50,22,29.97,29.83,10,4,0,0.00
2013-2-5,62,44,29,26,21,18,70,42,20,29.95,29.81,10,3,0,0.00
2013-2-6,63,45,26,31,24,18,75,44,28,29.85,29.68,10,4,0,0.00
2013-2-7,58,44,31,29,22,12,75,44,20,30.01,29.84,6,2,0,0.00
2013-2-8,59,45,34,27,23,20,57,42,28,29.96,29.58,19,5,0,0.00
2013-2-9,50,36,26,26,17,6,68,47,22,29.66,29.44,28,9,0,1.13
2013-2-10,45,35,27,24,16,12,79,49,27,29.78,29.65,13,4,0,0.00
2013-2-11,48,33,20,36,19,6,98,63,18,29.85,29.70,18,4,0,0.00
2013-2-12,44,33,23,23,14,6,76,48,21,30.01,29.76,15,7,0,0.00
2013-2-13,51,35,18,18,14,8,68,44,25,30.01,29.86,16,6,0,0.00
2013-2-14,55,40,24,22,18,15,69,44,24,30.06,29.87,14,6,0,0.00
2013-2-15,54,40,23,24,16,6,93,44,14,30.22,30.05,20,5,0,0.00
2013-2-16,61,40,22,16,8,0,62,30,11,30.28,29.98,9,2,0,0.00
2013-2-17,61,43,24,10,6,2,45,24,12,29.98,29.53,19,5,0,0.00
2013-2-18,55,43,31,19,2,-12,51,21,7,29.92,29.63,18,6,0,0.00
2013-2-19,61,42,23,37,10,-8,75,31,12,29.92,29.55,21,6,0,0.00
2013-2-20,53,43,33,38,31,18,84,64,25,29.57,29.31,19,7,0,0.00
2013-2-21,49,38,30,31,25,20,99,62,34,29.70,29.35,18,7,0,0.00
2013-2-22,48,36,26,27,21,14,83,57,29,29.88,29.69,17,5,0,0.00
2013-2-23,51,36,18,20,14,10,73,43,22,29.89,29.52,13,3,0,0.00
2013-2-24,44,35,29,26,16,6,89,48,26,29.70,29.45,19,9,0,0.00
2013-2-25,51,38,26,26,11,1,89,38,15,29.90,29.70,14,6,0,0.00
2013-2-26,51,37,20,18,6,-6,69,32,13,29.91,29.64,21,8,0,0.01
2013-2-27,48,35,20,13,7,0,65,32,18,30.12,29.92,8,3,0,0.00
2013-2-28,55,39,24,11,6,1,45,26,12,30.17,30.04,12,6,0,0.00
2013-3-1,62,46,28,24,16,6,46,31,20,30.24,30.09,13,5,0,0.00
2013-3-2,69,50,31,26,23,20,64,38,19,30.29,30.04,6,2,0,0.00
2013-3-3,70,52,32,26,19,4,61,32,8,30.05,29.70,18,5,0,0.00
2013-3-4,68,55,43,27,23,20,41,29,18,29.96,29.64,22,7,0,0.11
2013-3-5,63,48,31,25,20,9,72,37,12,30.17,29.97,7,3,0,0.00
2013-3-6,68,54,42,29,25,19,46,33,20,30.03,29.77,9,3,0,0.00
2013-3-7,73,55,34,25,21,14,53,29,14,29.92,29.72,12,3,0,0.00
2013-3-8,63,48,37,46,28,12,90,51,21,29.81,29.59,13,4,0,0.09
2013-3-9,48,40,32,36,26,18,85,59,32,29.81,29.60,13,6,0,0.00
2013-3-10,55,42,31,31,26,14,90,58,25,30.00,29.80,13,4,0,0.09
2013-3-11,66,47,27,23,19,12,70,37,12,30.03,29.83,12,4,0,0.00
2013-3-12,70,54,34,28,24,20,58,33,18,30.10,29.93,9,3,0,0.00
2013-3-13,74,55,35,30,25,18,67,35,17,30.22,30.05,8,3,0,0.00
2013-3-14,77,60,42,28,23,17,48,27,13,30.22,30.04,9,3,0,0.00
2013-3-15,82,60,39,24,18,14,38,22,10,30.08,29.80,9,2,0,0.00
2013-3-16,75,59,42,37,24,15,54,27,15,29.81,29.60,16,5,0,0.00
2013-3-17,72,54,38,38,25,0,81,41,7,29.75,29.53,27,6,0,0.10
2013-3-18,72,55,35,15,10,5,33,18,9,29.85,29.70,16,4,0,0.00
2013-3-19,68,52,40,20,13,5,35,22,14,30.04,29.83,15,4,0,0.00
2013-3-20,65,51,34,29,21,15,47,32,20,30.11,29.72,9,4,0,0.00
2013-3-21,75,61,50,35,22,7,45,25,8,29.71,29.47,24,8,0,0.07
2013-3-22,69,53,35,29,15,8,41,24,12,29.67,29.45,15,6,0,0.00
2013-3-23,53,43,33,30,5,-12,48,22,10,29.91,29.53,23,9,0,0.15
2013-3-24,57,41,22,3,-2,-11,29,17,11,29.96,29.72,17,6,0,0.00
2013-3-25,61,42,25,13,9,2,50,27,15,30.05,29.88,11,4,0,0.00
2013-3-26,68,50,31,17,13,8,39,24,14,30.04,29.78,15,5,0,0.00
2013-3-27,74,58,40,20,15,10,44,21,11,29.94,29.80,11,3,0,0.00
2013-3-28,74,62,46,25,18,10,30,19,11,29.99,29.86,13,4,0,0.00
2013-3-29,77,62,45,26,22,19,43,23,12,30.05,29.90,14,4,0,0.00
2013-3-30,75,61,41,28,23,18,41,25,14,30.04,29.83,14,4,0,0.00
2013-3-31,77,63,49,36,30,27,50,31,18,29.98,29.80,9,3,0,0.00
2013-4-1,79,65,46,29,21,9,46,22,9,29.92,29.68,14,4,0,0.00
2013-4-2,72,58,48,30,19,4,41,22,8,29.85,29.65,21,5,0,0.00
2013-4-3,71,54,38,34,28,22,70,41,17,29.99,29.84,11,5,0,0.00
2013-4-4,79,59,38,31,23,14,67,30,10,30.09,29.91,6,2,0,0.00
2013-4-5,80,64,48,23,18,14,30,18,10,29.95,29.65,14,5,0,0.00
2013-4-6,80,66,50,28,24,18,38,21,11,29.86,29.66,10,4,0,0.00
2013-4-7,79,68,53,30,22,16,37,19,11,29.77,29.59,25,6,0,0.01
2013-4-8,79,66,49,31,24,16,41,22,11,29.61,29.18,21,8,0,0.00
2013-4-9,54,47,40,37,33,28,83,59,41,29.67,29.24,17,6,0,0.00
2013-4-10,51,43,38,37,27,20,92,56,35,29.80,29.67,15,5,0,0.00
2013-4-11,70,51,30,32,24,16,60,38,20,29.80,29.63,14,5,0,0.00
2013-4-12,73,59,43,35,31,24,66,37,16,29.79,29.65,13,3,0,0.00
2013-4-13,79,62,40,30,24,16,54,27,10,29.77,29.50,17,5,0,0.00
2013-4-14,80,67,55,28,24,21,30,21,12,29.56,29.43,22,10,0,0.06
2013-4-15,85,67,46,27,22,15,40,20,8,29.63,29.40,20,6,0,0.00
2013-4-16,84,68,48,27,18,8,34,17,6,29.67,29.46,19,6,0,0.00
2013-4-17,65,55,39,30,22,11,44,29,13,29.81,29.48,30,9,0,1.15
2013-4-18,53,43,31,19,7,1,45,24,13,30.06,29.82,19,8,0,0.03
2013-4-19,68,49,27,13,7,4,47,20,9,30.15,29.83,9,3,0,0.00
2013-4-20,72,58,42,22,13,6,32,18,11,29.88,29.69,20,6,0,0.00
2013-4-21,80,60,38,25,19,9,50,23,7,30.01,29.81,10,4,0,0.00
2013-4-22,85,67,44,22,17,11,33,16,7,29.88,29.62,18,6,0,0.00
2013-4-23,72,60,43,32,18,-8,50,22,6,29.94,29.67,21,7,0,0.00
2013-4-24,78,52,31,23,19,17,58,31,12,30.05,29.86,10,4,0,0.00
2013-4-25,81,62,49,31,25,15,38,26,11,29.98,29.68,13,6,0,0.00
2013-4-26,80,63,44,32,23,8,56,26,7,30.08,29.88,14,4,0,0.00
2013-4-27,84,64,44,32,18,0,48,22,5,30.12,29.90,12,4,0,0.00
2013-4-28,89,67,44,19,10,3,31,12,5,29.98,29.73,10,3,0,0.00
2013-4-29,89,71,46,24,16,4,33,13,8,29.83,29.59,14,4,0,0.00
2013-4-30,89,73,50,24,18,12,30,14,7,29.73,29.57,17,5,0,0.00
2013-5-1,87,71,52,27,15,-3,35,13,7,30.07,29.66,17,6,0,0.00
2013-5-2,67,53,38,29,19,13,59,30,13,30.36,30.07,12,4,0,0.00
2013-5-3,73,54,35,20,16,12,48,24,10,30.27,29.84,9,4,0,0.00
2013-5-4,83,62,43,17,13,9,30,16,7,29.88,29.71,15,5,0,0.00
2013-5-5,77,64,50,33,21,11,28,20,14,30.00,29.84,21,7,0,0.00
2013-5-6,75,64,55,41,27,18,47,25,17,29.89,29.80,14,5,0,0.00
2013-5-7,80,65,46,35,31,26,53,29,16,29.91,29.71,12,4,0,0.00
2013-5-8,76,64,49,37,27,17,56,28,12,29.90,29.77,13,4,0,0.00
2013-5-9,78,63,47,33,27,23,42,26,15,29.98,29.82,14,4,0,0.00
2013-5-10,74,61,49,45,38,34,72,44,24,30.17,29.95,11,4,0,0.02
2013-5-11,76,61,48,44,38,29,79,47,19,30.21,30.12,14,4,0,0.00
2013-5-12,84,65,47,38,33,28,58,34,15,30.22,29.99,7,2,0,0.00
2013-5-13,88,70,50,35,31,28,51,27,13,30.17,29.97,8,3,0,0.00
2013-5-14,91,71,50,50,30,22,57,25,11,30.02,29.76,15,3,0,0.05
2013-5-15,92,74,62,46,37,21,54,30,11,29.88,29.69,15,4,0,0.00
2013-5-16,93,76,54,32,22,10,35,16,6,29.90,29.70,10,4,0,0.00
2013-5-17,90,75,53,33,22,12,29,15,9,29.90,29.69,20,4,0,0.00
2013-5-18,81,72,56,32,21,12,30,15,10,29.88,29.66,13,5,0,0.02
2013-5-19,78,67,56,38,31,21,45,28,13,29.83,29.70,18,7,0,0.00
2013-5-20,80,65,50,37,29,10,55,29,7,29.86,29.67,22,6,0,0.00
2013-5-21,88,68,48,37,30,23,58,28,10,29.92,29.70,14,4,0,0.00
2013-5-22,94,74,52,33,24,14,42,18,7,29.82,29.63,9,3,0,0.00
2013-5-23,95,77,56,43,22,11,34,14,8,29.87,29.68,13,4,0,0.00
2013-5-24,92,76,57,50,36,20,70,28,10,29.99,29.77,9,3,0,0.00
2013-5-25,99,77,53,39,24,10,35,16,5,29.97,29.72,12,4,0,0.00
2013-5-26,97,77,55,26,17,5,26,12,4,29.95,29.73,12,4,0,0.00
2013-5-27,89,72,56,29,16,7,23,12,5,29.90,29.68,16,4,0,0.00
2013-5-28,89,73,50,30,18,8,33,14,6,29.74,29.46,16,4,0,0.00
2013-5-29,86,74,61,38,24,12,36,17,7,29.63,29.49,21,6,0,0.00
2013-5-30,92,76,53,30,23,15,27,15,8,29.77,29.63,17,6,0,0.00
2013-5-31,91,78,62,38,28,7,36,17,8,29.86,29.72,18,8,0,0.00
2013-6-1,98,76,53,31,15,6,21,11,4,29.98,29.84,10,4,0,0.00
2013-6-2,92,76,63,46,37,29,38,25,17,30.01,29.74,15,5,0,0.00
2013-6-3,97,79,62,52,38,12,60,29,7,29.89,29.67,17,5,0,0.00
2013-6-4,101,82,57,30,23,14,26,13,5,29.90,29.72,23,4,0,0.00
2013-6-5,98,80,62,43,32,19,36,19,7,29.90,29.72,10,3,0,0.00
2013-6-6,92,76,59,46,40,27,53,30,10,29.95,29.75,10,4,0,0.00
2013-6-7,96,77,61,52,44,29,65,36,11,29.94,29.66,15,4,0,0.00
2013-6-8,101,82,60,47,37,25,55,26,8,29.85,29.62,15,5,0,0.00
2013-6-9,103,85,69,50,43,28,45,25,9,29.94,29.77,20,4,0,0.00
2013-6-10,103,88,67,50,40,29,50,23,8,29.94,29.75,11,3,0,0.02
2013-6-11,105,89,68,39,26,15,26,11,5,29.98,29.78,11,4,0,0.00
2013-6-12,104,85,62,34,26,19,25,13,6,30.02,29.85,8,3,0,0.00
2013-6-13,103,84,68,47,37,27,28,19,9,29.99,29.79,23,4,0,0.03
2013-6-14,97,82,68,54,49,36,54,33,13,29.93,29.74,14,4,0,0.00
2013-6-15,99,81,63,53,43,32,62,32,11,30.01,29.82,20,5,0,0.02
2013-6-16,99,82,68,46,41,36,38,25,12,30.02,29.87,23,4,0,0.00
2013-6-17,101,81,62,49,41,37,48,27,11,30.02,29.79,13,3,0,0.01
2013-6-18,97,81,65,53,48,40,60,35,16,30.03,29.74,19,6,0,0.01
2013-6-19,104,84,61,44,26,11,42,16,4,29.87,29.64,14,4,0,0.00
2013-6-20,104,83,60,44,18,-4,38,12,2,29.91,29.69,10,3,0,0.00
2013-6-21,99,83,61,46,20,4,26,11,3,29.96,29.71,10,4,0,0.00
2013-6-22,99,82,58,29,18,9,27,11,5,29.92,29.71,13,4,0,0.00
2013-6-23,100,81,57,31,19,8,21,11,5,29.89,29.66,12,3,0,0.00
2013-6-24,99,82,62,29,18,5,19,10,5,29.89,29.72,13,4,0,0.00
2013-6-25,103,83,60,28,22,16,23,11,6,29.98,29.80,9,3,0,0.00
2013-6-26,108,86,61,35,29,24,30,14,7,30.02,29.86,12,3,0,0.00
2013-6-27,110,90,68,41,32,26,26,14,6,30.05,29.88,9,3,0,0.00
2013-6-28,104,87,77,50,44,33,38,23,13,30.12,29.98,21,6,0,0.00
2013-6-29,102,84,69,49,46,39,46,29,13,30.08,29.85,18,4,0,0.00
2013-6-30,101,82,69,52,47,42,45,31,14,30.09,29.79,19,5,0,0.00
2013-7-1,93,76,62,56,52,44,75,46,20,30.13,29.94,16,5,0,0.00
2013-7-2,92,76,62,55,50,44,65,43,21,30.14,29.88,10,4,0,0.00
2013-7-3,94,75,60,60,54,46,90,52,22,30.08,29.77,13,4,0,0.05
2013-7-4,96,80,62,57,52,40,76,42,15,29.90,29.75,13,3,0,0.00
2013-7-5,99,80,67,63,54,48,84,44,21,29.90,29.70,19,4,0,0.17
2013-7-6,95,78,66,63,57,46,84,54,19,29.95,29.73,14,4,0,0.19
2013-7-7,102,81,64,62,57,48,86,49,18,29.96,29.80,12,4,0,0.05
2013-7-8,97,80,65,64,57,51,93,48,22,30.10,29.91,13,4,0,0.78
2013-7-9,99,80,65,65,60,52,94,56,22,30.10,29.91,16,2,0,0.00
2013-7-10,99,85,70,59,55,51,62,38,21,30.07,29.88,13,4,0,0.00
2013-7-11,92,80,68,62,58,52,73,49,27,30.09,29.85,9,4,0,0.00
2013-7-12,94,81,67,62,58,49,77,47,23,29.99,29.83,12,4,0,0.00
2013-7-13,99,83,68,62,57,50,77,44,21,30.02,29.87,12,3,0,0.02
2013-7-14,101,81,67,66,58,51,92,50,19,30.03,29.76,11,3,0,0.39
2013-7-15,80,70,66,65,58,51,97,69,45,30.04,29.93,12,5,0,0.00
2013-7-16,87,72,62,54,50,47,70,48,27,30.14,29.97,15,4,0,0.00
2013-7-17,87,73,58,59,54,49,96,56,29,30.21,30.05,11,4,0,0.06
2013-7-18,91,76,62,56,55,53,76,50,31,30.16,29.95,8,3,0,0.00
2013-7-19,93,76,64,63,59,56,90,60,32,30.05,29.86,8,2,0,0.06
2013-7-20,92,78,66,62,60,54,82,55,33,29.97,29.79,8,4,0,0.01
2013-7-21,98,80,68,61,57,50,72,49,21,29.95,29.78,11,3,0,0.00
2013-7-22,99,83,68,59,54,47,70,42,18,29.95,29.79,7,3,0,0.00
2013-7-23,99,83,67,57,53,46,66,38,18,29.96,29.80,12,3,0,0.00
2013-7-24,97,77,68,66,55,50,77,48,26,30.06,29.92,9,3,0,0.05
2013-7-25,87,76,65,62,60,58,81,59,40,30.09,29.92,11,3,0,0.00
2013-7-26,109,76,12,100,60,2,99,63,32,30.20,30.00,25,5,0,1.11
2013-7-27,86,74,61,63,60,56,98,65,37,30.17,29.89,8,3,0,0.00
2013-7-28,91,75,65,68,62,54,92,65,28,29.93,29.78,31,3,0,0.24
2013-7-29,94,78,61,63,55,47,96,51,22,30.03,29.90,13,4,0,0.01
2013-7-30,101,83,63,55,50,46,70,35,17,30.15,30.01,12,3,0,0.00
2013-7-31,100,83,68,55,51,42,59,35,16,30.16,29.97,7,2,0,0.00
2013-8-1,91,77,68,66,58,53,90,54,35,30.14,29.97,13,4,0,0.15
2013-8-2,96,77,64,64,61,53,92,63,24,30.03,29.86,14,4,0,0.11
2013-8-3,99,79,63,63,58,52,89,54,23,30.05,29.90,7,3,0,0.00
2013-8-4,99,82,66,63,58,50,85,49,24,30.06,29.89,19,4,0,0.06
2013-8-5,94,76,66,68,60,55,95,60,31,30.06,29.86,8,3,0,0.32
2013-8-6,91,77,68,59,56,53,64,49,30,29.98,29.87,18,4,0,0.00
2013-8-7,86,74,62,58,56,52,82,55,33,29.98,29.87,12,4,0,0.00
2013-8-8,91,77,64,59,52,43,83,46,20,29.97,29.85,14,4,0,0.00
2013-8-9,93,78,63,52,47,40,61,37,18,30.08,29.94,12,4,0,0.00
2013-8-10,88,73,62,56,52,45,74,50,30,30.19,30.03,13,5,0,0.02
2013-8-11,87,72,60,59,56,50,93,60,28,30.20,29.97,8,3,0,0.02
2013-8-12,87,74,66,60,58,55,75,59,35,30.12,29.97,9,2,0,0.00
2013-8-13,91,77,65,60,53,46,76,47,22,30.08,29.95,11,2,0,0.00
2013-8-14,96,78,65,60,54,44,76,47,18,30.09,29.92,14,3,0,0.00
2013-8-15,97,78,62,57,52,36,73,44,14,30.08,29.93,11,3,0,0.00
2013-8-16,100,81,60,54,48,40,71,37,14,30.08,29.92,9,2,0,0.00
2013-8-17,101,84,72,54,49,43,47,31,15,30.08,29.89,14,4,0,0.02
2013-8-18,99,82,69,55,50,44,59,35,17,30.07,29.89,8,3,0,0.00
2013-8-19,98,81,68,61,52,48,76,39,19,30.04,29.87,9,3,0,0.05
2013-8-20,96,76,62,68,59,52,90,59,25,30.06,29.85,12,2,0,0.38
2013-8-21,95,79,64,61,55,48,83,49,24,30.03,29.89,10,3,0,0.00
2013-8-22,94,81,65,56,51,45,65,37,21,30.07,29.88,7,3,0,0.00
2013-8-23,91,77,63,52,47,40,45,35,23,30.03,29.87,11,3,0,0.00
2013-8-24,90,76,66,63,56,50,80,53,30,30.06,29.92,12,4,0,0.04
2013-8-25,90,75,66,63,60,55,90,64,32,30.13,30.02,13,4,0,0.04
2013-8-26,93,78,64,60,57,50,83,53,28,30.15,29.98,7,3,0,0.00
2013-8-27,96,78,65,56,52,49,67,43,23,30.07,29.89,8,3,0,0.00
2013-8-28,91,77,62,58,53,49,67,45,26,30.07,29.95,9,3,0,0.00
2013-8-29,89,77,68,60,57,53,65,51,31,30.13,30.01,9,3,0,0.00
2013-8-30,96,80,64,63,56,48,83,49,24,30.10,29.91,10,2,0,0.00
2013-8-31,98,82,64,59,53,46,69,40,20,30.01,29.81,6,2,0,0.00
2013-9-1,100,82,69,58,52,46,59,37,18,30.06,29.85,17,3,0,0.00
2013-9-2,93,80,69,59,56,53,67,46,29,30.08,29.90,10,3,0,0.00
2013-9-3,97,80,67,60,55,48,74,46,21,30.08,29.91,11,3,0,0.00
2013-9-4,98,81,67,56,48,36,62,36,18,30.13,29.98,10,3,0,0.00
2013-9-5,95,79,62,46,41,35,42,27,15,30.15,30.00,7,2,0,0.00
2013-9-6,94,78,61,45,41,34,43,28,17,30.14,29.92,9,2,0,0.00
2013-9-7,92,78,65,60,50,42,50,39,25,30.06,29.89,7,2,0,0.00
2013-9-8,92,76,63,61,51,46,75,43,22,29.99,29.77,16,3,0,0.11
2013-9-9,91,75,62,60,54,48,76,50,24,29.89,29.72,17,3,0,0.08
2013-9-10,75,66,62,64,60,56,99,84,56,29.98,29.85,7,2,0,1.01
2013-9-11,87,71,62,64,60,51,99,72,29,30.02,29.91,7,2,0,0.00
2013-9-12,75,67,60,66,62,57,99,84,65,30.04,29.91,9,3,0,0.52
2013-9-13,70,63,60,63,61,58,99,93,65,29.98,29.87,6,1,0,0.52
2013-9-14,76,65,58,63,60,57,99,83,56,29.94,29.83,10,2,0,1.24
2013-9-15,83,67,57,60,56,49,99,72,33,30.02,29.91,6,3,0,0.29
2013-9-16,82,68,57,58,56,53,93,67,38,30.11,29.96,6,2,0,0.00
2013-9-17,83,71,58,60,58,53,99,67,38,30.03,29.82,10,3,0,0.00
2013-9-18,85,72,62,62,58,51,93,64,35,29.91,29.76,9,2,0,0.00
2013-9-19,87,72,60,62,55,42,99,60,24,29.91,29.79,9,2,0,0.19
2013-9-20,84,71,60,55,52,42,72,52,33,30.00,29.87,11,3,0,0.00
2013-9-21,81,69,56,58,54,50,95,62,35,30.00,29.79,8,3,0,0.00
2013-9-22,81,66,54,59,53,40,97,66,35,29.83,29.51,17,5,0,0.20
2013-9-23,76,62,44,42,36,31,83,40,21,29.99,29.70,13,5,0,0.00
2013-9-24,78,63,47,46,42,38,83,49,25,30.08,29.88,9,2,0,0.00
2013-9-25,86,68,49,47,43,32,90,46,15,29.88,29.58,11,3,0,0.00
2013-9-26,85,70,52,47,40,33,69,37,17,29.74,29.60,14,4,0,0.00
2013-9-27,74,60,49,52,42,31,62,51,41,29.93,29.67,14,5,0,0.00
2013-9-28,73,56,39,31,26,19,67,34,14,30.10,29.94,8,3,0,0.00
2013-9-29,79,59,40,33,28,24,63,35,13,30.12,29.91,7,2,0,0.00
2013-9-30,85,64,43,38,32,26,73,35,14,29.96,29.77,8,2,0,0.00
2013-10-1,85,65,45,37,30,22,64,31,10,29.93,29.80,8,1,0,0.00
2013-10-2,83,63,44,37,32,23,65,35,12,29.96,29.77,6,2,0,0.00
2013-10-3,80,63,44,42,34,25,73,38,15,29.84,29.61,9,2,0,0.00
2013-10-4,67,57,48,34,22,11,44,27,14,30.01,29.69,17,8,0,0.01
2013-10-5,64,52,38,25,20,15,53,29,16,30.16,30.01,13,5,0,0.00
2013-10-6,72,54,35,29,24,20,59,33,15,30.22,30.06,6,2,0,0.00
2013-10-7,75,57,38,32,27,22,64,35,15,30.16,29.94,8,2,0,0.00
2013-10-8,79,60,43,34,32,29,66,37,18,29.96,29.70,8,2,0,0.00
2013-10-9,78,62,46,38,34,29,60,37,18,29.82,29.68,10,3,0,0.00
2013-10-10,72,56,45,47,37,29,79,52,28,29.84,29.59,17,6,0,0.16
2013-10-11,64,49,33,36,32,30,92,54,29,29.93,29.83,12,3,0,0.00
2013-10-12,70,54,36,38,35,32,90,51,27,30.04,29.88,7,2,0,0.00
2013-10-13,78,63,48,46,40,36,63,45,23,30.02,29.77,11,5,0,0.00
2013-10-14,70,60,49,45,30,20,66,35,16,29.95,29.82,15,5,0,0.00
2013-10-15,69,53,38,34,29,23,63,41,23,29.97,29.77,22,6,0,0.04
2013-10-16,64,52,44,36,29,16,66,44,19,30.00,29.87,13,5,0,0.00
2013-10-17,65,50,32,30,21,17,83,35,18,30.02,29.79,7,2,0,0.00
2013-10-18,65,50,34,28,19,12,69,32,15,30.02,29.81,19,4,0,0.00
2013-10-19,67,49,33,29,24,19,79,42,16,30.08,29.88,8,3,0,0.00
2013-10-20,72,53,33,24,20,13,62,31,12,29.92,29.71,10,2,0,0.00
2013-10-21,66,53,37,34,29,19,68,42,25,30.05,29.84,7,2,0,0.00
2013-10-22,69,52,36,32,27,22,83,44,17,30.15,30.00,5,2,0,0.00
2013-10-23,71,54,36,33,27,21,65,38,20,30.10,29.94,6,2,0,0.00
2013-10-24,74,58,41,50,33,26,90,43,21,30.12,29.93,11,3,0,0.17
2013-10-25,63,58,50,49,48,47,92,71,58,30.14,30.04,14,4,0,0.09
2013-10-26,68,57,38,48,41,37,99,59,35,30.18,30.06,7,2,0,0.00
2013-10-27,68,54,41,42,38,35,92,60,30,30.11,29.78,7,3,0,0.00
2013-10-28,70,56,44,42,35,24,82,50,21,29.82,29.69,7,3,0,0.00
2013-10-29,70,58,46,31,27,23,46,32,20,29.88,29.67,19,5,0,0.00
2013-10-30,62,51,38,40,33,26,73,52,35,29.84,29.63,18,5,0,0.01
2013-10-31,58,45,30,30,27,24,88,55,28,29.96,29.83,14,5,0,0.00
2013-11-1,62,49,34,30,27,22,77,45,22,30.13,29.92,16,5,0,0.00
2013-11-2,64,48,31,30,27,24,84,48,24,30.19,29.90,7,2,0,0.00
2013-11-3,68,55,42,39,31,25,65,41,24,29.90,29.60,12,3,0,0.00
2013-11-4,67,57,37,38,36,33,87,48,33,29.80,29.67,9,2,0,0.00
2013-11-5,66,46,34,46,32,16,97,60,33,30.10,29.67,21,6,0,0.07
2013-11-6,55,41,24,20,17,14,78,41,20,30.28,30.09,10,3,0,0.00
2013-11-7,62,43,27,30,23,19,91,48,23,30.33,30.12,7,2,0,0.00
2013-11-8,62,52,33,28,26,22,71,39,25,30.12,29.89,6,2,0,0.00
2013-11-9,70,49,32,29,26,22,73,45,18,30.09,29.96,5,2,0,0.00
2013-11-10,69,50,34,32,26,22,66,42,17,30.18,30.05,7,2,0,0.00
2013-11-11,70,52,36,29,26,21,66,39,19,30.24,30.08,7,3,0,0.00
2013-11-12,58,47,37,36,32,22,85,58,39,30.44,30.23,13,4,0,0.00
2013-11-13,56,44,34,42,37,33,99,76,52,30.38,29.99,6,2,0,0.00
2013-11-14,61,46,34,42,36,30,99,72,40,29.99,29.79,4,1,0,0.00
2013-11-15,61,45,32,48,35,27,99,71,39,29.79,29.51,18,3,0,0.14
2013-11-16,62,51,41,46,38,30,99,67,34,29.69,29.47,15,4,0,0.00
2013-11-17,61,49,37,34,32,30,78,53,34,30.02,29.69,10,4,0,0.00
2013-11-18,57,43,34,35,32,28,83,65,40,30.10,29.96,6,2,0,0.00
2013-11-19,62,46,30,37,33,28,94,64,36,29.98,29.71,7,2,0,0.00
2013-11-20,49,44,38,45,39,31,99,84,60,29.82,29.73,6,1,0,0.26
2013-11-21,59,47,41,47,44,41,99,90,60,29.95,29.78,7,2,0,0.35
2013-11-22,42,35,31,40,28,24,95,75,70,30.17,29.93,25,9,0,0.14
2013-11-23,36,33,28,30,24,20,85,70,59,30.25,30.12,26,10,0,0.06
2013-11-24,36,30,23,25,22,16,94,73,59,30.18,29.92,17,5,0,0.00
2013-11-25,47,35,28,32,29,25,96,79,54,30.16,29.87,13,4,0,0.00
2013-11-26,49,36,25,32,29,25,99,79,51,30.27,30.16,7,2,0,0.00
2013-11-27,47,36,23,30,28,22,99,76,49,30.23,30.02,6,2,0,0.00
2013-11-28,51,37,28,29,27,24,96,69,39,30.12,30.01,8,2,0,0.00
2013-11-29,56,39,27,32,29,24,96,69,37,30.19,30.07,7,2,0,0.00
2013-11-30,57,42,29,34,32,29,99,70,42,30.18,30.03,8,2,0,0.00
2013-12-1,52,39,30,34,31,27,97,75,49,30.16,30.06,12,5,0,0.00
2013-12-2,53,39,29,32,29,26,97,69,42,30.05,29.70,8,3,0,0.00
2013-12-3,66,45,27,30,24,14,99,53,14,29.70,29.42,24,4,0,0.00
2013-12-4,62,46,37,34,25,18,70,47,20,29.68,29.40,23,7,0,0.12
2013-12-5,37,27,17,34,25,14,99,92,60,29.77,29.62,8,4,0,0.00
2013-12-6,37,24,11,22,16,10,99,74,47,29.95,29.78,6,2,0,0.14
2013-12-7,33,26,18,29,21,12,99,83,73,29.91,29.62,8,4,0,0.00
2013-12-8,37,30,25,27,18,11,96,62,49,29.79,29.58,11,5,0,0.00
2013-12-9,33,26,17,17,9,1,70,50,30,30.26,29.78,15,7,0,0.00
2013-12-10,34,22,9,12,6,1,73,52,29,30.29,30.05,6,2,0,0.00
2013-12-11,44,28,15,19,13,8,77,56,30,30.32,30.10,8,2,0,0.13
2013-12-12,43,31,20,22,17,13,78,57,36,30.31,29.95,7,2,0,0.00
2013-12-13,50,37,30,33,27,22,87,66,49,29.94,29.77,14,4,0,0.00
2013-12-14,48,35,26,22,20,17,74,54,31,30.24,29.94,8,4,0,0.00
2013-12-15,50,35,21,22,19,16,87,55,32,30.24,30.11,19,4,0,0.00
2013-12-16,57,39,24,24,22,19,83,53,28,30.24,30.11,11,3,0,0.00
2013-12-17,58,40,25,27,23,20,81,54,28,30.28,30.14,8,2,0,0.00
2013-12-18,54,38,26,27,24,21,91,58,32,30.14,29.75,5,2,0,0.00
2013-12-19,57,41,27,28,25,20,95,55,31,29.74,29.51,6,2,0,0.00
2013-12-20,55,40,29,32,26,21,80,58,28,29.61,29.43,9,3,0,0.00
2013-12-21,46,39,34,34,28,24,99,68,44,29.65,29.36,14,6,0,0.00
2013-12-22,46,35,25,26,20,14,80,57,29,30.11,29.65,10,3,0,0.00
2013-12-23,48,34,21,22,19,15,81,56,33,30.29,30.11,7,2,0,0.00
2013-12-24,50,36,22,25,22,19,96,59,35,30.24,30.00,9,3,0,0.00
2013-12-25,48,36,24,23,19,12,87,52,33,30.27,30.11,9,4,0,0.00
2013-12-26,49,33,18,21,16,13,91,53,30,30.24,30.06,7,2,0,0.00
2013-12-27,54,36,24,24,16,14,85,47,22,30.21,30.05,12,3,0,0.00
2013-12-28,49,34,19,20,17,14,83,54,29,30.05,29.74,6,2,0,0.00
2013-12-29,49,38,26,25,22,18,70,53,36,30.02,29.77,8,2,0,0.00
2013-12-30,51,35,22,20,15,10,81,47,20,30.17,30.01,10,2,0,0.00
2013-12-31,51,34,21,20,17,14,79,51,27,30.17,29.97,6,2,0,0.00
2014-1-1,57,39,22,24,18,15,78,46,20,30.14,29.92,18,4,0,0.00
2014-1-2,52,35,22,25,18,13,86,52,23,30.22,30.05,7,2,0,0.00